This is the latest recevied weather packets stored in our database for station/object N0ZMJ-4. If no packets are shown the sender has not sent any weather packets the latest 10 day(s).
| Time | Temp. | Humidity | Pressure | Rain* | Wind** | Luminosity | Snow |
|---|---|---|---|---|---|---|---|
| 1777582503 | 10.56° C | 56% | 1015.8 hPa | 0 mm | - | - | - |
| 1777582203 | 10.56° C | 54% | 1016 hPa | 0 mm | - | - | - |
| 1777581903 | 10.56° C | 54% | 1016.2 hPa | 0 mm | - | - | - |
| 1777581603 | 10.56° C | 55% | 1016.2 hPa | 0 mm | - | - | - |
| 1777581303 | 10.56° C | 55% | 1016.2 hPa | 0 mm | - | - | - |
| 1777581002 | 10.56° C | 56% | 1016.4 hPa | 0 mm | - | - | - |
| 1777580703 | 10° C | 56% | 1016.4 hPa | 0 mm | - | - | - |
| 1777580402 | 10° C | 55% | 1016.5 hPa | 0 mm | - | - | - |
| 1777580103 | 10° C | 55% | 1016.6 hPa | 0 mm | - | - | - |
| 1777579803 | 10° C | 55% | 1016.6 hPa | 0 mm | - | - | - |
| 1777579503 | 10° C | 56% | 1016.7 hPa | 0 mm | - | - | - |
| 1777579203 | 10° C | 56% | 1016.7 hPa | 0 mm | - | - | - |
| 1777578903 | 10° C | 58% | 1016.7 hPa | 0 mm | - | - | - |
| 1777578603 | 10° C | 55% | 1016.7 hPa | 0 mm | - | - | - |
| 1777578303 | 10° C | 55% | 1016.8 hPa | 0 mm | - | - | - |
| 1777578003 | 10° C | 54% | 1016.8 hPa | 0 mm | - | - | - |
| 1777577702 | 10° C | 56% | 1016.9 hPa | 0 mm | - | - | - |
| 1777577403 | 9.44° C | 56% | 1016.9 hPa | 0 mm | - | - | - |
| 1777577103 | 10° C | 55% | 1016.9 hPa | 0 mm | - | - | - |
| 1777576803 | 10° C | 55% | 1016.8 hPa | 0 mm | - | - | - |
| 1777576503 | 10° C | 55% | 1016.9 hPa | 0 mm | - | - | - |
| 1777576203 | 10° C | 55% | 1016.9 hPa | 0 mm | - | - | - |
| 1777575903 | 10° C | 56% | 1017.1 hPa | 0 mm | - | - | - |
| 1777575603 | 10.56° C | 55% | 1017.1 hPa | 0 mm | - | - | - |
| 1777575303 | 10° C | 55% | 1017 hPa | 0 mm | - | - | - |
* Rain latest hour (hover to see other rain measurements)
** Current wind speed in m/s (hover to see current wind gust speed)